Location: Arrakis Observatory
(44.1122°N, 95.7153°W)
Time: 14:29:57
(UTC-05:00)

Daily predictions for brighter satellites

Satellite Brightness Start Highest point End
(mag) Time Altitude Azimuth Time Altitude Azimuth Time Altitude Azimuth
Cosmos 1655 Rocket 4.4 21:36:13 10° SSW 21:42:24 72° W 21:48:38 10° N
S3M 4.0 21:36:51 10° N 21:43:00 88° E 21:49:08 10° S
Cosmos 371 Rocket 3.6 21:39:00 10° NNW 21:43:49 70° WSW 21:48:35 10° S
Cosmos 2228 Rocket 3.5 21:41:31 10° NNW 21:45:57 68° W 21:50:26 10° S
ERS-1 Rocket 3.4 21:42:14 10° S 21:47:13 66° WSW 21:52:16 10° NNW
YAOGAN 6 3.6 21:46:35 10° SE 21:49:51 31° ENE 21:53:05 10° N
Cosmos 2219 Rocket 4.2 21:47:26 10° N 21:50:50 16° NE 21:54:14 10° E
SPOT 5 2.9 21:46:58 10° SSE 21:51:25 63° ENE 21:56:10 10° N
Cosmos 405 3.6 21:48:28 10° N 21:51:58 43° ENE 21:55:26 10° SSE
ALOS 4.3 21:48:53 10° SSW 21:52:50 27° W 21:56:48 10° NW
Cosmos 1777 Rocket 4.1 21:48:25 10° S 21:53:34 57° ESE 21:58:44 10° NNE
Cosmos 1437 4.1 21:52:48 10° SSE 21:55:30 24° E 21:58:13 10° NE
Cosmos 1743 Rocket 3.9 21:51:07 10° SSW 21:55:35 74° W 22:00:03 10° N
MetOp-A 4.3 21:55:37 10° SSE 22:00:54 65° ENE 22:06:14 10° N
ARGOS 3.9 21:56:07 10° SE 22:01:07 39° ENE 22:06:06 10° N
Cosmos 1500 Rocket 3.6 21:57:57 10° S 22:02:18 90° SSW 22:06:45 10° N
deb Chang Zheng 4 3.9 21:58:16 10° N 22:02:37 72° WNW 22:06:55 10° SSW
BREEZE-M DEB (TANK) 3.8 22:01:04 10° NW 22:02:56 23° N 22:04:44 10° ENE
H-2A R/B 3.6 22:01:08 10° ESE 22:05:17 24° ENE 22:09:30 10° N
CZ-2C R/B 2.8 22:06:45 10° SW 22:07:46 14° W 22:08:48 10° WNW
Cosmos 2219 4.0 22:04:07 10° SSE 22:09:09 32° ESE 22:14:10 10° NE
NOSS 3-1 (C) 4.4 22:06:28 10° SSE 22:11:10 25° ESE 22:16:12 10° ENE
Cosmos 1441 Rocket 3.6 22:07:36 10° SSW 22:11:22 63° WNW 22:15:06 10° N
ATLAS CENTAUR R/B 3.6 22:08:35 10° WNW 22:11:58 21° WSW 22:15:07 10° SSW
SL-08 RB Rocket 4.5 22:08:39 11° SE 22:12:28 36° ENE 22:16:36 10° N
PSLV R/B 3.3 22:10:25 10° S 22:13:30 76° W 22:16:35 10° NNW
Cosmos 2322 3.8 22:09:57 10° NNW 22:15:42 76° ENE 22:20:54 13° SSE
SPOT 1/Viking Rocket 3.7 22:12:06 11° SSE 22:17:01 63° ENE 22:22:08 10° N
Cosmos 883 Rocket 4.5 22:10:58 10° N 22:17:13 82° E 22:23:23 10° S
Cosmos 2237 Rocket 4.2 22:14:07 10° N 22:17:54 18° NE 22:21:41 10° E
Cosmos 1726 3.5 22:16:54 10° NNE 22:20:07 26° ENE 22:22:28 15° ESE
Cosmos 1680 Rocket 3.6 22:14:59 10° NNW 22:20:15 73° ENE 22:24:52 13° SSE
Cosmos 2322 Rocket 3.5 22:16:26 10° NW 22:21:31 36° WSW 22:26:34 10° S
Cosmos 923 Rocket 4.1 22:18:18 10° NNW 22:23:33 82° WSW 22:28:22 12° SSE
AVUM R/B 2.4 22:25:35 10° SSW 22:27:53 86° WNW 22:30:25 10° NNE
USA 245 2.2 22:26:25 18° SSE 22:28:15 69° ENE 22:30:39 10° N
Cosmos 1908 3.9 22:24:46 10° NNW 22:28:34 54° W 22:32:23 10° S
Cosmos 304 Rocket 3.8 22:24:01 10° NNW 22:28:52 90° WSW 22:32:54 15° SSE
SL-16 R/B 3.6 22:25:49 10° NW 22:30:49 33° WSW 22:35:47 10° SSW
Cosmos 2360 Rocket 2.3 22:26:58 10° NNW 22:32:38 80° WSW 22:37:27 15° SSE
CZ-4B R/B 3.5 22:27:44 10° NNE 22:33:03 75° ESE 22:38:16 10° S
NOAA 11 4.2 22:31:17 14° SSE 22:35:57 73° ENE 22:41:24 10° N
Cosmos 1898 Rocket 4.4 22:33:17 16° SSE 22:36:31 30° E 22:40:59 10° NE
Cosmos 2315 Rocket 4.0 22:30:25 10° N 22:36:40 83° E 22:42:17 13° S
Landsat 7 4.2 22:35:02 17° SE 22:38:27 49° ENE 22:43:03 10° N
Meteor 1-11 4.5 22:33:40 12° SSE 22:38:56 53° E 22:44:29 10° NNE
CARTOSAT-1 4.5 22:37:19 17° SE 22:40:02 35° ENE 22:43:59 10° N
Cosmos 2266 Rocket 4.4 22:37:18 10° SSW 22:43:34 65° W 22:49:45 10° N
Cosmos 1633 Rocket 3.6 22:42:16 19° SSE 22:44:58 41° E 22:49:05 10° NNE
Sich 1 3.5 22:42:31 19° SSE 22:45:23 44° E 22:49:36 10° NNE
Cosmos 1674 4.1 22:46:59 10° SW 22:50:33 37° WNW 22:54:11 10° N
Cosmos 2151 3.6 22:47:50 10° SSW 22:51:57 56° W 22:56:07 10° N
USA 229 DEB 4.2 22:46:39 10° SW 22:53:33 67° NW 23:00:34 10° NNE
USA 229 4.2 22:46:45 10° SW 22:53:39 67° NW 23:00:40 10° NNE
Terra 2.2 22:51:23 21° SE 22:54:18 50° ENE 22:58:55 10° N
Meteor 1-4 Rocket 3.1 22:53:15 10° N 22:56:55 46° ENE 22:58:33 27° SE
Cosmos 1300 2.7 22:54:02 10° N 22:57:54 84° W 23:00:11 23° S
Cosmos 1805 Rocket 3.6 22:54:12 13° S 22:58:13 85° W 23:02:42 10° N
Cosmos 2227 Rocket 3.5 22:57:46 19° ESE 22:59:22 22° E 23:03:34 10° NE
Cosmos 1626 3.8 22:59:43 18° E 23:00:20 19° E 23:03:02 10° NE
SeaSat 1 4.1 22:58:28 12° E 23:02:04 25° NE 23:06:03 10° N
CZ-4 R/B 4.0 22:57:53 10° NNE 23:02:52 81° WNW 23:07:44 10° SSW
USA 32 4.1 22:58:00 10° N 23:03:16 65° E 23:06:29 24° SSE
Cosmos 2333 Rocket 3.1 22:58:04 10° NNW 23:03:25 38° NE 23:07:11 18° ESE
Nadezhda 1 Rocket 4.3 23:02:58 10° N 23:08:53 52° ENE 23:12:27 24° SE
SL-16 R/B 4.1 23:05:04 10° N 23:09:09 20° NE 23:13:13 10° E
CZ-4C R/B 3.1 23:07:42 28° S 23:09:23 72° WSW 23:12:52 10° NNW
Lacrosse 4 Rocket 4.0 23:08:45 10° NNE 23:10:47 13° NE 23:12:51 10° ENE
NOSS 3-1 (A) 3.5 23:07:22 10° SSW 23:13:03 54° ESE 23:19:22 10° NE
Cosmos 1707 Rocket 4.0 23:10:45 10° NNW 23:15:01 55° W 23:17:49 20° SSW
COSMOS 2428 2.8 23:09:30 10° NNW 23:15:11 75° WSW 23:18:35 25° SSE
Cosmos 1666 Rocket 3.8 23:16:58 17° SSW 23:20:16 67° W 23:24:42 10° N
Cosmos 1455 2.9 23:17:18 10° N 23:20:54 39° ENE 23:21:56 32° ESE
Cosmos 1745 Rocket 4.0 23:17:11 22° S 23:21:19 69° E 23:27:28 10° NNE
Cosmos 2058 4.0 23:19:08 10° SSW 23:22:58 41° WNW 23:26:53 10° N
SL-08 R/B 4.4 23:19:46 20° S 23:24:18 83° E 23:30:37 10° N
DELTA 2 R/B (1) 4.3 23:20:07 10° W 23:25:04 34° SSW 23:26:42 28° SSE
Cosmos 2297 Rocket 3.3 23:25:45 24° ESE 23:26:55 25° ESE 23:31:26 10° NE
Cosmos 2298 Rocket 4.0 23:22:19 13° SSW 23:27:04 85° WNW 23:32:26 10° NNE
Cosmos 1470 Rocket 3.5 23:31:55 36° SSE 23:33:33 68° E 23:37:51 10° NNE
Cosmos 1933 Rocket 3.6 23:33:20 36° SSE 23:35:04 68° E 23:39:32 10° NNE
Cosmos 2219 Rocket 2.1 23:30:04 10° NNW 23:35:41 83° ENE 23:38:24 32° SSE
ATLAS 2AS CENTAUR R/B 3.5 23:32:38 26° SSE 23:35:49 37° ESE 23:42:57 10° NE
COSMOS 2455 4.0 23:32:27 10° NNW 23:37:56 35° NE 23:42:07 16° ESE
GEOS 3 Rocket 4.4 23:35:40 19° ESE 23:39:07 44° NE 23:44:01 10° NNW
Cosmos 1937 Rocket 3.4 23:36:51 25° S 23:39:55 78° ESE 23:45:09 10° NNE
Cosmos 220 Rocket 3.9 23:38:58 35° S 23:40:42 73° ESE 23:45:08 10° NNE
H-2A R/B 2.6 23:41:19 24° SSW 23:44:19 53° W 23:49:38 10° NNW
Cosmos 1703 3.6 23:42:49 30° SSW 23:44:33 61° W 23:48:27 10° N
IGS 5A 4.0 23:43:55 32° SSW 23:45:33 52° W 23:49:39 10° NNW
Cosmos 1271 Rocket 3.6 23:45:09 10° NNW 23:48:46 42° W 23:50:04 30° SW
Cosmos 1980 3.7 23:43:40 10° NNW 23:49:20 78° ENE 23:51:50 35° SE
Cosmos 1386 Rocket 4.3 23:49:17 29° S 23:52:35 87° E 23:58:38 10° N
Cosmos 2219 4.4 23:47:43 10° SW 23:53:09 42° WNW 23:58:36 10° NNE
Cosmos 389 Rocket 4.5 23:52:36 10° NNE 23:55:09 18° ENE 23:55:35 18° E
Cosmos 1726 4.2 23:52:27 10° NW 23:55:22 21° W 23:57:09 16° SW
